Location: Piolenc
(44.1794°N, 4.7641°E)
Time: 04:41:10
(UTC+00:00)

STARLINK-2118 - Pass Details

Date: 27 January 2021
Orbit: 379 x 380 km, 53.1° (Epoch: 27 February)

Event Time Altitude Azimuth Distance (km) Brightness Sun altitude
Exits shadow 05:45:19 11° 221° (SW) 1,356 5.3 -14.2°
Maximum altitude 05:48:17 58° 141° (SE) 457 3.4 -13.6°
Drops below altitude 10° 05:51:25 10° 62° (ENE) 1,425 6.5 -13.1°
Sets 05:53:30 0° 58° (ENE) 2,287 7.5 -12.7°
